Погода в Инкоу

Китай     40°40′21″N   122°15′03″E
темп.,
°C
ветер,
м/с
пор.,
м/с
влажн.,
%
обл.,
%
осадки,
мм/ч
давл.,
гПа
погр.,
м
5 марта, пт
пт523:00+4ю510740 0.0 1018212
02:00+4ю6127317 0.0 1018215
05:00+2ссз358533 0.0 102274
08:00−2ссв12187662 0.0 1026771
11:00−2ссв111566100 0.2 10291030
14:00−1ссв11154693 0.2 10291104
17:00−2ссв10144098 0.0 10321195
20:00−4ссв10154184 0.0 10341129
6 марта, сб
сб623:00−6ссв10154236 0.0 10371050
02:00−8ссв9143941 0.0 10371000
05:00−8ссв914370 0.0 1038910
08:00−8ссв914310 0.0 1039866
11:00−4ссв811230 0.0 1038924
14:00−2ссв710210 0.0 1035998
17:00−3ссв68240 0.0 1034793
20:00−5ссв37300 0.0 1034290
7 марта, вс
вс723:00−6ссв35300 0.0 1033166
02:00−6ссв22320 0.0 103258
05:00−7юв11340 0.0 103135
08:00−4ю12280 0.0 1032136
11:000зюз33260 0.0 1030444
14:00+1юз44340 0.0 1029383
17:000юз34540 0.0 1028260
20:00−2ю23720 0.0 103043
8 марта, пн
пн823:00−2ю23740 0.0 103027
02:00−2ю23700 0.0 103025
05:00−2ююв23730 0.0 102923
08:000ююв225711 0.0 1029111
11:00+4юз564716 0.0 1028392
14:00+5юз69518 0.0 1026404
17:00+4ююз610510 0.0 1024293
20:00+3ююз713560 0.0 1025264
9 марта, вт
вт923:00+3ююз6125946 0.0 1025303
02:00+2ююз7136123 0.0 1024313
05:00+2ююз613660 0.0 1023284
08:00+3ююз58710 0.0 1025285
11:00+6з12610 0.0 1026425
14:00+11ссв56340 0.0 1026870
17:00+10св57330 0.0 1027958
20:00+6св410440 0.0 1030242